Total_Precipitation_Accumulation
1.12 1.09 1.09 0.99 0.95 0.97 1.03 1.21 1.51 1.33 0.82 0.61 0.60 0.64 0.72 0.81 0.91 0.89 0.83 0.90 0.99 1.12 1.26 1.34 1.42 1.64 2.05 2.74 3.68 4.69 4.92 4.23 3.39 2.87 2.82 3.27 3.74 4.22
1.19 1.21 1.18 1.14 1.13 1.09 1.09 1.14 1.31 1.46 1.13 0.60 0.54 0.59 0.73 0.86 1.01 1.01 1.00 1.08 1.06 1.13 1.22 1.30 1.34 1.47 1.69 2.07 2.68 3.60 4.54 4.73 4.15 3.51 3.22 3.30 3.62 3.98
1.24 1.31 1.27 1.23 1.29 1.25 1.18 1.15 1.17 1.31 1.33 0.74 0.54 0.57 0.78 0.99 1.05 1.09 1.13 1.09 1.04 1.12 1.19 1.26 1.31 1.39 1.57 1.80 2.15 2.73 3.62 4.41 4.60 4.23 3.86 3.60 3.58 3.69
1.28 1.30 1.32 1.32 1.35 1.33 1.33 1.25 1.15 1.13 1.25 1.03 0.71 0.69 0.83 1.01 1.08 1.13 1.20 1.18 1.11 1.18 1.23 1.31 1.40 1.47 1.60 1.72 1.93 2.21 2.83 3.54 4.20 4.40 4.17 3.80 3.62 3.71
1.54 1.52 1.44 1.44 1.45 1.39 1.40 1.35 1.24 1.15 1.14 1.16 0.93 0.80 0.87 0.98 1.12 1.22 1.25 1.24 1.25 1.30 1.27 1.30 1.44 1.55 1.62 1.68 1.79 1.98 2.24 2.64 3.23 3.94 4.18 3.97 3.71 3.66
1.64 1.65 1.62 1.61 1.56 1.51 1.52 1.47 1.43 1.44 1.38 1.37 1.21 1.01 0.97 1.00 1.19 1.40 1.49 1.35 1.33 1.33 1.36 1.35 1.44 1.53 1.59 1.58 1.54 1.68 1.92 2.27 2.82 3.43 3.94 4.05 3.74 3.58
1.48 1.50 1.57 1.74 1.80 1.86 1.89 1.77 1.75 1.86 1.82 1.73 1.52 1.31 1.17 1.22 1.34 1.43 1.66 1.62 1.51 1.43 1.46 1.39 1.39 1.37 1.40 1.48 1.54 1.65 1.83 1.98 2.32 2.86 3.38 3.78 3.80 3.65
1.39 1.30 1.30 1.50 1.61 1.76 1.91 1.92 1.98 2.15 2.23 2.14 1.86 1.59 1.31 1.26 1.38 1.61 1.83 2.02 1.94 1.54 1.56 1.60 1.54 1.56 1.45 1.42 1.56 1.63 1.76 1.91 2.06 2.39 2.82 3.23 3.49 3.63
1.24 1.23 1.19 1.22 1.36 1.32 1.51 1.63 1.68 1.85 2.10 2.21 2.18 1.73 1.45 1.34 1.63 1.84 1.89 2.02 1.92 1.68 1.77 2.00 1.81 1.73 1.59 1.55 1.58 1.50 1.60 1.75 1.85 2.06 2.38 2.77 3.12 3.37
1.05 1.04 1.04 1.08 1.19 1.36 1.45 1.47 1.39 1.47 1.76 1.96 2.13 1.94 1.72 1.67 1.94 2.24 2.36 2.38 2.16 1.94 1.92 2.29 2.08 1.93 1.82 1.69 1.60 1.45 1.49 1.60 1.71 1.84 2.03 2.35 2.68 2.92
0.99 0.98 0.95 0.95 1.25 1.51 1.46 1.39 1.26 1.26 1.43 1.73 1.95 2.05 2.12 2.24 2.41 2.71 2.89 2.86 2.69 2.30 2.07 2.26 2.29 2.20 2.05 1.93 1.75 1.56 1.45 1.47 1.54 1.65 1.74 1.91 2.19 2.54
1.01 0.96 1.07 1.12 1.35 1.46 1.37 1.42 1.46 1.29 1.23 1.29 1.40 1.51 1.60 1.77 2.14 2.42 2.69 2.86 2.80 2.72 2.25 2.23 2.36 2.41 2.65 2.23 1.81 1.49 1.35 1.39 1.43 1.51 1.57 1.63 1.84 2.01
1.15 1.08 1.03 1.20 1.26 1.33 1.39 1.40 1.55 1.42 1.30 1.39 1.39 1.34 1.36 1.51 1.70 2.00 2.38 2.72 2.92 2.80 2.30 2.38 2.57 2.34 2.53 2.42 2.02 1.64 1.32 1.27 1.28 1.36 1.45 1.50 1.62 1.71
1.14 1.02 1.01 1.18 1.23 1.32 1.33 1.44 1.55 1.50 1.38 1.40 1.34 1.30 1.33 1.41 1.53 1.74 2.02 2.28 2.45 2.50 2.25 2.30 2.73 2.47 2.35 2.17 2.04 1.85 1.50 1.26 1.16 1.17 1.23 1.47 1.61 1.67
1.29 1.31 1.23 1.27 1.27 1.22 1.28 1.34 1.35 1.32 1.39 1.40 1.29 1.20 1.21 1.31 1.39 1.52 1.69 1.92 2.11 2.23 2.23 2.17 2.37 2.41 2.38 2.26 1.90 1.68 1.62 1.49 1.19 1.14 1.21 1.26 1.35 1.48
1.42 1.43 1.39 1.35 1.27 1.21 1.21 1.16 1.14 1.23 1.31 1.30 1.18 1.08 1.07 1.19 1.34 1.46 1.62 1.80 2.07 2.18 2.18 2.19 2.23 2.42 2.43 2.03 1.79 1.59 1.42 1.60 1.38 1.17 1.22 1.28 1.27 1.26
1.54 1.45 1.34 1.32 1.32 1.24 1.14 1.08 1.07 1.15 1.19 1.12 1.11 1.09 1.10 1.18 1.27 1.38 1.61 1.77 1.97 2.00 2.11 2.28 2.31 2.31 2.35 2.26 2.09 1.63 1.33 1.27 1.25 1.17 1.24 1.39 1.46 1.37
1.59 1.46 1.25 1.17 1.17 1.14 1.11 1.08 1.04 1.06 1.06 1.08 1.13 1.15 1.17 1.22 1.26 1.32 1.53 1.73 1.83 1.82 1.91 2.10 2.26 2.35 2.48 2.59 2.33 1.80 1.43 1.31 1.25 1.18 1.20 1.40 1.63 1.54
1.35 1.24 1.13 1.07 1.02 1.00 1.03 1.01 1.00 0.99 1.03 1.08 1.10 1.09 1.11 1.16 1.21 1.28 1.41 1.55 1.65 1.71 1.78 1.88 2.08 2.27 2.41 2.54 2.58 2.12 1.72 1.50 1.39 1.40 1.34 1.36 1.54 1.58
1.14 1.11 1.11 1.07 1.03 1.02 1.03 1.03 1.00 0.99 1.06 1.12 1.11 1.07 1.09 1.17 1.21 1.23 1.28 1.42 1.53 1.59 1.68 1.76 1.94 2.16 2.31 2.27 2.39 2.37 2.10 1.73 1.58 1.60 1.52 1.46 1.51 1.61
1.10 1.06 1.07 1.11 1.10 1.08 1.06 1.06 1.07 1.07 1.07 1.12 1.12 1.08 1.08 1.16 1.19 1.16 1.22 1.36 1.45 1.50 1.59 1.64 1.75 1.92 2.04 2.06 2.10 2.11 2.18 2.12 1.80 1.65 1.58 1.66 1.73 1.73
1.06 1.06 1.05 1.09 1.13 1.12 1.11 1.11 1.13 1.13 1.15 1.17 1.11 1.07 1.08 1.13 1.18 1.17 1.19 1.23 1.27 1.34 1.44 1.48 1.57 1.79 2.02 2.17 2.09 1.93 2.01 2.15 2.17 1.91 1.72 1.75 2.01 2.24
1.10 1.10 1.07 1.06 1.08 1.08 1.09 1.10 1.13 1.13 1.13 1.15 1.08 1.01 1.01 1.08 1.11 1.13 1.12 1.09 1.11 1.18 1.30 1.44 1.56 1.73 1.92 2.01 2.04 1.88 1.80 1.92 2.05 2.08 2.12 1.91 1.65 1.58